Time,TemperatureF,DewpointF,PressureIn,WindDirection,WindDirectionDegrees,WindSpeedMPH,WindSpeedGustMPH,Humidity,HourlyPrecipIn,Conditions,Clouds,dailyrainin,SoftwareType,DateUTC
2013-10-21 00:01:00,44.9,44.9,30.17,NE,34,0.0,1.0,100,0.00,RA,,0.00,WeatherDisplay:10.37,2013-10-21 07:01:00,
2013-10-21 00:11:00,45.0,45.0,30.17,NNE,31,0.0,1.0,100,0.00,OVC,,0.00,WeatherDisplay:10.37,2013-10-21 07:11:00,
2013-10-21 00:16:00,45.0,45.0,30.17,NNE,31,0.0,1.0,100,0.00,OVC,,0.00,WeatherDisplay:10.37,2013-10-21 07:16:00,
2013-10-21 00:21:00,45.0,45.0,30.17,NNE,30,0.0,1.0,100,0.00,OVC,,0.00,WeatherDisplay:10.37,2013-10-21 07:21:00,
2013-10-21 00:26:00,45.0,45.0,30.17,NNE,29,0.0,1.0,100,0.00,OVC,,0.00,WeatherDisplay:10.37,2013-10-21 07:26:00,
2013-10-21 00:31:00,45.0,45.0,30.17,NNE,28,0.0,0.0,100,0.00,OVC,,0.00,WeatherDisplay:10.37,2013-10-21 07:31:00,
2013-10-21 00:36:00,45.0,45.0,30.17,NNE,29,0.0,0.0,100,0.00,OVC,,0.00,WeatherDisplay:10.37,2013-10-21 07:36:00,
2013-10-21 00:41:00,45.0,45.0,30.17,NE,40,0.0,1.0,100,0.00,OVC,,0.00,WeatherDisplay:10.37,2013-10-21 07:41:00,
2013-10-21 00:46:00,45.1,45.1,30.17,ENE,74,0.0,1.0,100,0.00,OVC,,0.00,WeatherDisplay:10.37,2013-10-21 07:46:00,
2013-10-21 00:51:00,45.1,45.1,30.17,East,88,0.0,1.0,100,0.00,OVC,,0.00,WeatherDisplay:10.37,2013-10-21 07:51:00,
2013-10-21 00:56:00,45.1,45.1,30.17,NE,46,0.0,0.0,100,0.00,OVC,,0.00,WeatherDisplay:10.37,2013-10-21 07:56:00,
2013-10-21 01:01:00,45.1,45.1,30.17,NE,46,0.0,1.0,100,0.00,OVC,,0.00,WeatherDisplay:10.37,2013-10-21 08:01:00,
2013-10-21 01:06:00,45.1,45.1,30.17,NE,46,0.0,1.0,100,0.00,OVC,,0.00,WeatherDisplay:10.37,2013-10-21 08:06:00,
2013-10-21 01:11:00,45.2,45.2,30.17,NE,47,0.0,1.0,100,0.00,OVC,,0.00,WeatherDisplay:10.37,2013-10-21 08:11:00,
2013-10-21 01:16:00,45.2,45.2,30.17,NE,53,0.0,0.0,100,0.00,OVC,,0.00,WeatherDisplay:10.37,2013-10-21 08:16:00,
2013-10-21 01:21:00,45.2,45.2,30.18,NE,53,0.0,1.0,100,0.00,OVC,,0.00,WeatherDisplay:10.37,2013-10-21 08:21:00,
2013-10-21 01:26:00,45.3,45.3,30.17,NE,53,0.0,0.0,100,0.00,OVC,,0.00,WeatherDisplay:10.37,2013-10-21 08:26:00,
2013-10-21 01:31:00,45.2,45.2,30.18,ENE,59,0.0,1.0,100,0.00,OVC,,0.00,WeatherDisplay:10.37,2013-10-21 08:31:00,
2013-10-21 01:36:00,45.2,45.2,30.18,East,81,0.0,1.0,100,0.00,OVC,,0.00,WeatherDisplay:10.37,2013-10-21 08:36:00,
2013-10-21 01:41:00,45.3,45.3,30.17,East,80,0.0,1.0,100,0.00,OVC,,0.00,WeatherDisplay:10.37,2013-10-21 08:41:00,
2013-10-21 01:46:00,45.3,45.3,30.17,East,81,0.0,1.0,100,0.00,OVC,,0.00,WeatherDisplay:10.37,2013-10-21 08:46:00,
2013-10-21 01:51:00,45.3,45.3,30.17,East,82,0.0,1.0,100,0.00,OVC,,0.00,WeatherDisplay:10.37,2013-10-21 08:51:00,
2013-10-21 01:56:00,45.2,45.2,30.17,ENE,64,1.0,2.0,100,0.00,OVC,,0.00,WeatherDisplay:10.37,2013-10-21 08:56:00,
2013-10-21 02:01:00,45.2,45.2,30.17,NE,47,0.0,2.0,100,0.00,OVC,,0.00,WeatherDisplay:10.37,2013-10-21 09:01:00,
2013-10-21 02:11:00,45.2,45.2,30.17,ENE,61,0.0,2.0,100,0.00,OVC,,0.00,WeatherDisplay:10.37,2013-10-21 09:11:00,
2013-10-21 02:16:00,45.2,45.2,30.17,NE,52,0.0,1.0,100,0.00,OVC,,0.00,WeatherDisplay:10.37,2013-10-21 09:16:00,
2013-10-21 02:21:00,45.2,45.2,30.17,NE,46,0.0,1.0,100,0.00,OVC,,0.00,WeatherDisplay:10.37,2013-10-21 09:21:00,
2013-10-21 02:26:00,45.2,45.2,30.17,ENE,61,0.0,2.0,100,0.00,OVC,,0.00,WeatherDisplay:10.37,2013-10-21 09:26:00,
2013-10-21 02:31:00,45.2,45.2,30.17,ENE,77,0.0,0.0,100,0.00,OVC,,0.00,WeatherDisplay:10.37,2013-10-21 09:31:00,
2013-10-21 02:36:00,45.2,45.2,30.17,East,82,0.0,0.0,100,0.00,OVC,,0.00,WeatherDisplay:10.37,2013-10-21 09:36:00,
2013-10-21 02:41:00,45.2,45.2,30.17,East,82,0.0,1.0,100,0.00,OVC,,0.00,WeatherDisplay:10.37,2013-10-21 09:41:00,
2013-10-21 02:46:00,45.2,45.2,30.17,East,81,0.0,0.0,100,0.00,OVC,,0.00,WeatherDisplay:10.37,2013-10-21 09:46:00,
2013-10-21 02:51:00,45.1,45.1,30.17,East,80,0.0,0.0,100,0.00,OVC,,0.00,WeatherDisplay:10.37,2013-10-21 09:51:00,
2013-10-21 02:56:00,45.1,45.1,30.17,East,80,0.0,1.0,100,0.00,OVC,,0.00,WeatherDisplay:10.37,2013-10-21 09:56:00,
2013-10-21 03:01:00,45.1,45.1,30.17,ENE,63,0.0,1.0,100,0.00,OVC,,0.00,WeatherDisplay:10.37,2013-10-21 10:01:00,
2013-10-21 03:11:00,45.1,45.1,30.17,ENE,63,0.0,1.0,100,0.00,OVC,,0.00,WeatherDisplay:10.37,2013-10-21 10:11:00,
2013-10-21 03:16:00,45.0,45.0,30.17,ENE,63,0.0,0.0,100,0.00,OVC,,0.00,WeatherDisplay:10.37,2013-10-21 10:16:00,
2013-10-21 03:21:00,45.0,45.0,30.17,ENE,63,0.0,1.0,100,0.00,OVC,,0.00,WeatherDisplay:10.37,2013-10-21 10:21:00,
2013-10-21 03:26:00,45.0,45.0,30.17,ENE,64,0.0,1.0,100,0.00,OVC,,0.00,WeatherDisplay:10.37,2013-10-21 10:26:00,
2013-10-21 03:31:00,45.0,45.0,30.17,ENE,64,0.0,0.0,100,0.00,OVC,,0.00,WeatherDisplay:10.37,2013-10-21 10:31:00,
2013-10-21 03:36:00,45.0,45.0,30.17,ENE,64,0.0,0.0,100,0.00,OVC,,0.00,WeatherDisplay:10.37,2013-10-21 10:36:00,
2013-10-21 03:41:00,45.0,45.0,30.16,NE,53,0.0,1.0,100,0.00,OVC,,0.00,WeatherDisplay:10.37,2013-10-21 10:41:00,
2013-10-21 03:46:00,44.9,44.9,30.17,ENE,72,0.0,2.0,100,0.00,OVC,,0.00,WeatherDisplay:10.37,2013-10-21 10:46:00,
2013-10-21 03:51:00,44.9,44.9,30.17,ENE,69,0.0,1.0,100,0.00,OVC,,0.00,WeatherDisplay:10.37,2013-10-21 10:51:00,
2013-10-21 03:56:00,44.8,44.8,30.16,NE,44,0.0,1.0,100,0.00,OVC,,0.00,WeatherDisplay:10.37,2013-10-21 10:56:00,
2013-10-21 04:01:00,44.8,44.8,30.17,ENE,78,0.0,1.0,100,0.00,OVC,,0.00,WeatherDisplay:10.37,2013-10-21 11:01:00,
2013-10-21 04:11:00,44.7,44.7,30.17,NNW,348,0.0,1.0,100,0.00,OVC,,0.00,WeatherDisplay:10.37,2013-10-21 11:11:00,
2013-10-21 04:16:00,44.7,44.7,30.17,North,351,0.0,2.0,100,0.00,OVC,,0.00,WeatherDisplay:10.37,2013-10-21 11:16:00,
2013-10-21 04:21:00,44.8,44.8,30.17,North,357,0.0,1.0,100,0.00,OVC,,0.00,WeatherDisplay:10.37,2013-10-21 11:21:00,
2013-10-21 04:26:00,44.8,44.8,30.17,North,359,0.0,1.0,100,0.00,OVC,,0.00,WeatherDisplay:10.37,2013-10-21 11:26:00,
2013-10-21 04:31:00,44.8,44.8,30.17,North,359,0.0,0.0,100,0.00,OVC,,0.00,WeatherDisplay:10.37,2013-10-21 11:31:00,
2013-10-21 04:36:00,44.8,44.8,30.17,North,359,0.0,0.0,100,0.00,OVC,,0.00,WeatherDisplay:10.37,2013-10-21 11:36:00,
2013-10-21 04:41:00,44.9,44.9,30.17,North,358,0.0,0.0,100,0.00,OVC,,0.00,WeatherDisplay:10.37,2013-10-21 11:41:00,
2013-10-21 04:46:00,44.9,44.9,30.16,North,359,0.0,0.0,100,0.00,OVC,,0.00,WeatherDisplay:10.37,2013-10-21 11:46:00,
2013-10-21 04:51:00,44.9,44.9,30.16,North,359,0.0,0.0,100,0.00,OVC,,0.00,WeatherDisplay:10.37,2013-10-21 11:51:00,
2013-10-21 04:56:00,45.0,45.0,30.16,North,7,0.0,1.0,100,0.00,OVC,,0.00,WeatherDisplay:10.37,2013-10-21 11:56:00,
2013-10-21 05:01:00,45.0,45.0,30.16,SE,139,0.0,1.0,100,0.00,OVC,,0.00,WeatherDisplay:10.37,2013-10-21 12:01:00,
2013-10-21 05:11:00,45.0,45.0,30.16,SSE,153,0.0,0.0,100,0.00,OVC,,0.00,WeatherDisplay:10.37,2013-10-21 12:11:00,
2013-10-21 05:16:00,45.1,45.1,30.16,SSE,153,0.0,0.0,100,0.00,OVC,,0.00,WeatherDisplay:10.37,2013-10-21 12:16:00,
2013-10-21 05:21:00,45.1,45.1,30.16,East,81,0.0,1.0,100,0.00,OVC,,0.00,WeatherDisplay:10.37,2013-10-21 12:21:00,
2013-10-21 05:26:00,45.1,45.1,30.16,NNE,21,0.0,2.0,100,0.00,OVC,,0.00,WeatherDisplay:10.37,2013-10-21 12:26:00,
2013-10-21 05:31:00,45.0,45.0,30.16,ENE,69,1.0,2.0,100,0.00,OVC,,0.00,WeatherDisplay:10.37,2013-10-21 12:31:00,
2013-10-21 05:36:00,45.0,45.0,30.16,East,83,0.0,1.0,100,0.00,OVC,,0.00,WeatherDisplay:10.37,2013-10-21 12:36:00,
2013-10-21 05:41:00,45.0,45.0,30.16,East,99,0.0,1.0,100,0.00,OVC,,0.00,WeatherDisplay:10.37,2013-10-21 12:41:00,
2013-10-21 05:46:00,45.0,45.0,30.16,East,100,0.0,1.0,100,0.00,OVC,,0.00,WeatherDisplay:10.37,2013-10-21 12:46:00,
2013-10-21 05:51:00,45.0,45.0,30.16,East,100,0.0,0.0,100,0.00,OVC,,0.00,WeatherDisplay:10.37,2013-10-21 12:51:00,
2013-10-21 05:56:00,45.1,45.1,30.16,East,100,0.0,0.0,100,0.00,OVC,,0.00,WeatherDisplay:10.37,2013-10-21 12:56:00,
2013-10-21 06:01:00,45.1,45.1,30.16,East,100,0.0,0.0,100,0.00,OVC,,0.00,WeatherDisplay:10.37,2013-10-21 13:01:00,
2013-10-21 06:11:00,45.0,45.0,30.16,East,100,0.0,1.0,100,0.00,OVC,,0.00,WeatherDisplay:10.37,2013-10-21 13:11:00,
2013-10-21 06:16:00,44.9,44.9,30.16,East,97,0.0,1.0,100,0.00,OVC,,0.00,WeatherDisplay:10.37,2013-10-21 13:16:00,
2013-10-21 06:21:00,44.9,44.9,30.16,East,79,0.0,1.0,100,0.00,OVC,,0.00,WeatherDisplay:10.37,2013-10-21 13:21:00,
2013-10-21 06:26:00,44.9,44.9,30.16,East,96,0.0,3.0,100,0.00,OVC,,0.00,WeatherDisplay:10.37,2013-10-21 13:26:00,
2013-10-21 06:31:00,44.9,44.9,30.16,ESE,118,0.0,1.0,100,0.00,OVC,,0.00,WeatherDisplay:10.37,2013-10-21 13:31:00,
2013-10-21 06:36:00,44.8,44.8,30.16,ENE,70,0.0,2.0,100,0.00,OVC,,0.00,WeatherDisplay:10.37,2013-10-21 13:36:00,
2013-10-21 06:41:00,44.8,44.8,30.15,NNE,15,0.0,0.0,100,0.00,OVC,,0.00,WeatherDisplay:10.37,2013-10-21 13:41:00,
2013-10-21 06:46:00,44.8,44.8,30.16,NNE,15,0.0,0.0,100,0.00,OVC,,0.00,WeatherDisplay:10.37,2013-10-21 13:46:00,
2013-10-21 06:51:00,44.8,44.8,30.15,NNE,16,0.0,1.0,100,0.00,OVC,,0.00,WeatherDisplay:10.37,2013-10-21 13:51:00,
2013-10-21 06:56:00,44.7,44.7,30.16,ENE,66,0.0,1.0,100,0.00,OVC,,0.00,WeatherDisplay:10.37,2013-10-21 13:56:00,
2013-10-21 07:01:00,44.6,44.6,30.16,NE,56,0.0,2.0,100,0.00,OVC,,0.00,WeatherDisplay:10.37,2013-10-21 14:01:00,
2013-10-21 07:11:00,44.4,44.4,30.16,East,85,0.0,1.0,100,0.00,OVC,,0.00,WeatherDisplay:10.37,2013-10-21 14:11:00,
2013-10-21 07:16:00,44.4,44.4,30.16,East,84,0.0,1.0,100,0.00,OVC,,0.00,WeatherDisplay:10.37,2013-10-21 14:16:00,
2013-10-21 07:21:00,44.4,44.4,30.16,ENE,78,0.0,0.0,100,0.00,OVC,,0.00,WeatherDisplay:10.37,2013-10-21 14:21:00,
2013-10-21 07:26:00,44.3,44.3,30.16,ENE,78,0.0,1.0,100,0.00,OVC,,0.00,WeatherDisplay:10.37,2013-10-21 14:26:00,
2013-10-21 07:31:00,44.3,44.3,30.15,ENE,75,0.0,1.0,100,0.00,OVC,,0.00,WeatherDisplay:10.37,2013-10-21 14:31:00,
2013-10-21 07:36:00,44.3,44.3,30.15,ENE,75,0.0,0.0,100,0.00,OVC,,0.00,WeatherDisplay:10.37,2013-10-21 14:36:00,
2013-10-21 07:41:00,44.3,44.3,30.16,ENE,75,0.0,0.0,100,0.00,OVC,,0.00,WeatherDisplay:10.37,2013-10-21 14:41:00,
2013-10-21 07:46:00,44.3,44.3,30.16,ENE,75,0.0,1.0,100,0.00,OVC,,0.00,WeatherDisplay:10.37,2013-10-21 14:46:00,
2013-10-21 07:51:00,44.3,44.3,30.16,ENE,75,0.0,1.0,100,0.00,OVC,,0.00,WeatherDisplay:10.37,2013-10-21 14:51:00,
2013-10-21 07:56:00,44.3,44.3,30.16,ENE,65,0.0,1.0,100,0.00,OVC,,0.00,WeatherDisplay:10.37,2013-10-21 14:56:00,
2013-10-21 08:01:00,44.3,44.3,30.16,ESE,117,0.0,1.0,100,0.00,OVC,,0.00,WeatherDisplay:10.37,2013-10-21 15:01:00,
2013-10-21 08:11:00,44.3,44.3,30.16,ESE,106,1.0,2.0,100,0.00,OVC,,0.00,WeatherDisplay:10.37,2013-10-21 15:11:00,
2013-10-21 08:16:00,44.3,44.3,30.16,ESE,109,0.0,1.0,100,0.00,OVC,,0.00,WeatherDisplay:10.37,2013-10-21 15:16:00,
2013-10-21 08:21:00,44.4,44.4,30.16,ESE,110,0.0,0.0,100,0.00,OVC,,0.00,WeatherDisplay:10.37,2013-10-21 15:21:00,
2013-10-21 08:26:00,44.4,44.4,30.16,ESE,110,0.0,1.0,100,0.00,OVC,,0.00,WeatherDisplay:10.37,2013-10-21 15:26:00,
2013-10-21 08:31:00,44.3,44.3,30.16,ESE,110,0.0,1.0,100,0.00,OVC,,0.00,WeatherDisplay:10.37,2013-10-21 15:31:00,
2013-10-21 08:36:00,44.3,44.3,30.16,ENE,76,0.0,1.0,100,0.00,OVC,,0.00,WeatherDisplay:10.37,2013-10-21 15:36:00,
2013-10-21 08:41:00,44.4,44.4,30.17,NNE,17,0.0,1.0,100,0.00,OVC,,0.00,WeatherDisplay:10.37,2013-10-21 15:41:00,
2013-10-21 08:51:00,44.4,44.4,30.17,ENE,78,1.0,2.0,100,0.00,OVC,,0.00,WeatherDisplay:10.37,2013-10-21 15:51:00,
2013-10-21 08:56:00,44.5,44.5,30.17,East,94,0.0,2.0,100,0.00,OVC,,0.00,WeatherDisplay:10.37,2013-10-21 15:56:00,
2013-10-21 09:01:00,44.6,44.6,30.17,East,88,0.0,2.0,100,0.00,OVC,,0.00,WeatherDisplay:10.37,2013-10-21 16:01:00,
2013-10-21 09:11:00,44.6,44.6,30.17,East,85,0.0,1.0,100,0.00,OVC,,0.00,WeatherDisplay:10.37,2013-10-21 16:11:00,
2013-10-21 09:16:00,44.6,44.6,30.17,East,90,0.0,2.0,100,0.00,OVC,,0.00,WeatherDisplay:10.37,2013-10-21 16:16:00,
2013-10-21 09:21:00,44.6,44.6,30.17,East,90,1.0,3.0,100,0.00,OVC,,0.00,WeatherDisplay:10.37,2013-10-21 16:21:00,
2013-10-21 09:26:00,44.6,44.6,30.17,East,90,1.0,3.0,100,0.00,OVC,,0.00,WeatherDisplay:10.37,2013-10-21 16:26:00,
2013-10-21 09:31:00,44.7,44.7,30.17,East,93,0.0,2.0,100,0.00,OVC,,0.00,WeatherDisplay:10.37,2013-10-21 16:31:00,
2013-10-21 09:36:00,44.8,44.8,30.17,ENE,73,0.0,2.0,100,0.00,OVC,,0.00,WeatherDisplay:10.37,2013-10-21 16:36:00,
2013-10-21 09:41:00,44.9,44.9,30.17,North,9,0.0,2.0,100,0.00,OVC,,0.00,WeatherDisplay:10.37,2013-10-21 16:41:00,
2013-10-21 09:46:00,44.9,44.9,30.17,NE,44,0.0,2.0,100,0.00,OVC,,0.00,WeatherDisplay:10.37,2013-10-21 16:46:00,
2013-10-21 09:51:00,45.0,45.0,30.17,NE,49,1.0,2.0,100,0.00,OVC,,0.00,WeatherDisplay:10.37,2013-10-21 16:51:00,
2013-10-21 09:56:00,44.9,44.9,30.17,ENE,61,1.0,2.0,100,0.00,OVC,,0.00,WeatherDisplay:10.37,2013-10-21 16:56:00,
2013-10-21 10:01:00,44.9,44.9,30.17,East,89,0.0,1.0,100,0.00,OVC,,0.00,WeatherDisplay:10.37,2013-10-21 17:01:00,
2013-10-21 10:11:00,45.0,45.0,30.17,East,99,0.0,1.0,100,0.00,OVC,,0.00,WeatherDisplay:10.37,2013-10-21 17:11:00,
2013-10-21 10:16:00,45.1,45.1,30.17,NNE,33,0.0,1.0,100,0.00,OVC,,0.00,WeatherDisplay:10.37,2013-10-21 17:16:00,
2013-10-21 10:21:00,45.2,45.2,30.17,North,0,0.0,1.0,100,0.00,OVC,,0.00,WeatherDisplay:10.37,2013-10-21 17:21:00,
2013-10-21 10:26:00,45.2,45.2,30.18,East,87,0.0,1.0,100,0.00,OVC,,0.00,WeatherDisplay:10.37,2013-10-21 17:26:00,
2013-10-21 10:31:00,45.4,45.4,30.18,East,100,0.0,1.0,100,0.00,OVC,,0.00,WeatherDisplay:10.37,2013-10-21 17:31:00,
2013-10-21 10:36:00,45.2,45.2,30.18,East,90,1.0,2.0,100,0.00,OVC,,0.00,WeatherDisplay:10.37,2013-10-21 17:36:00,
2013-10-21 10:41:00,45.2,45.2,30.18,East,81,1.0,2.0,100,0.00,OVC,,0.00,WeatherDisplay:10.37,2013-10-21 17:41:00,
2013-10-21 10:46:00,45.3,45.3,30.18,East,81,0.0,1.0,100,0.00,OVC,,0.00,WeatherDisplay:10.37,2013-10-21 17:46:00,
2013-10-21 10:51:00,45.5,45.5,30.18,East,89,0.0,1.0,100,0.00,OVC,,0.00,WeatherDisplay:10.37,2013-10-21 17:51:00,
2013-10-21 10:56:00,45.6,45.6,30.18,East,94,0.0,2.0,100,0.00,OVC,,0.00,WeatherDisplay:10.37,2013-10-21 17:56:00,
2013-10-21 11:01:00,45.9,45.9,30.17,ENE,75,1.0,2.0,100,0.00,OVC,,0.00,WeatherDisplay:10.37,2013-10-21 18:01:00,
2013-10-21 11:11:00,46.1,46.1,30.18,East,80,0.0,1.0,100,0.00,OVC,,0.00,WeatherDisplay:10.37,2013-10-21 18:11:00,
2013-10-21 11:16:00,46.3,46.3,30.18,East,92,0.0,1.0,100,0.00,OVC,,0.00,WeatherDisplay:10.37,2013-10-21 18:16:00,
2013-10-21 11:21:00,46.3,46.3,30.18,East,81,0.0,2.0,100,0.00,OVC,,0.00,WeatherDisplay:10.37,2013-10-21 18:21:00,
2013-10-21 11:26:00,46.5,46.5,30.18,West,274,0.0,1.0,100,0.00,OVC,,0.00,WeatherDisplay:10.37,2013-10-21 18:26:00,
2013-10-21 11:31:00,46.6,46.6,30.18,West,272,1.0,2.0,100,0.00,OVC,,0.00,WeatherDisplay:10.37,2013-10-21 18:31:00,
2013-10-21 11:36:00,46.7,46.7,30.18,East,92,1.0,2.0,100,0.00,OVC,,0.00,WeatherDisplay:10.37,2013-10-21 18:36:00,
2013-10-21 11:41:00,46.7,45.9,30.18,East,91,0.0,1.0,97,0.00,OVC,,0.00,WeatherDisplay:10.37,2013-10-21 18:41:00,
2013-10-21 11:46:00,46.8,46.0,30.18,East,92,0.0,2.0,97,0.00,OVC,,0.00,WeatherDisplay:10.37,2013-10-21 18:46:00,
2013-10-21 11:51:00,47.0,46.2,30.18,East,86,0.0,1.0,97,0.00,OVC,,0.00,WeatherDisplay:10.37,2013-10-21 18:51:00,
2013-10-21 11:56:00,47.2,46.4,30.18,ENE,61,0.0,2.0,97,0.00,OVC,,0.00,WeatherDisplay:10.37,2013-10-21 18:56:00,
2013-10-21 12:01:00,47.3,46.2,30.18,ENE,65,0.0,2.0,96,0.00,OVC,,0.00,WeatherDisplay:10.37,2013-10-21 19:01:00,
2013-10-21 12:11:00,47.5,46.1,30.18,ESE,106,1.0,3.0,95,0.00,OVC,,0.00,WeatherDisplay:10.37,2013-10-21 19:11:00,
2013-10-21 12:16:00,47.6,46.3,30.18,ESE,106,1.0,2.0,95,0.00,OVC,,0.00,WeatherDisplay:10.37,2013-10-21 19:16:00,
2013-10-21 12:21:00,48.0,46.6,30.18,East,97,0.0,2.0,95,0.00,OVC,,0.00,WeatherDisplay:10.37,2013-10-21 19:21:00,
2013-10-21 12:26:00,48.2,46.9,30.17,ENE,60,0.0,1.0,95,0.00,OVC,,0.00,WeatherDisplay:10.37,2013-10-21 19:26:00,
2013-10-21 12:31:00,48.3,46.6,30.17,East,79,0.0,4.0,94,0.00,OVC,,0.00,WeatherDisplay:10.37,2013-10-21 19:31:00,
2013-10-21 12:36:00,48.5,46.8,30.17,East,80,1.0,2.0,94,0.00,OVC,,0.00,WeatherDisplay:10.37,2013-10-21 19:36:00,
2013-10-21 12:41:00,48.6,46.7,30.17,NE,43,0.0,2.0,93,0.00,OVC,,0.00,WeatherDisplay:10.37,2013-10-21 19:41:00,
2013-10-21 12:46:00,48.9,47.2,30.17,NNE,13,0.0,2.0,94,0.00,OVC,,0.00,WeatherDisplay:10.37,2013-10-21 19:46:00,
2013-10-21 12:51:00,49.1,47.1,30.17,WNW,295,0.0,2.0,93,0.00,OVC,,0.00,WeatherDisplay:10.37,2013-10-21 19:51:00,
2013-10-21 12:56:00,49.2,47.3,30.17,NE,36,0.0,1.0,93,0.00,OVC,,0.00,WeatherDisplay:10.37,2013-10-21 19:56:00,
2013-10-21 13:01:00,49.3,47.1,30.16,East,89,1.0,2.0,92,0.00,OVC,,0.00,WeatherDisplay:10.37,2013-10-21 20:01:00,
2013-10-21 13:11:00,49.3,47.4,30.16,East,101,0.0,1.0,93,0.00,OVC,,0.00,WeatherDisplay:10.37,2013-10-21 20:11:00,
2013-10-21 13:16:00,49.6,47.7,30.16,ESE,116,0.0,1.0,93,0.00,OVC,,0.00,WeatherDisplay:10.37,2013-10-21 20:16:00,
2013-10-21 13:21:00,49.9,48.0,30.16,SE,124,0.0,0.0,93,0.00,OVC,,0.00,WeatherDisplay:10.37,2013-10-21 20:21:00,
2013-10-21 13:31:00,50.1,47.9,30.16,ESE,110,0.0,1.0,92,0.00,OVC,,0.00,WeatherDisplay:10.37,2013-10-21 20:31:00,
2013-10-21 13:36:00,50.1,47.9,30.16,ESE,103,0.0,1.0,92,0.00,OVC,,0.00,WeatherDisplay:10.37,2013-10-21 20:36:00,
2013-10-21 13:41:00,50.4,48.1,30.15,SE,136,0.0,1.0,92,0.00,OVC,,0.00,WeatherDisplay:10.37,2013-10-21 20:41:00,
2013-10-21 13:46:00,50.5,48.3,30.15,East,99,0.0,1.0,92,0.00,OVC,,0.00,WeatherDisplay:10.37,2013-10-21 20:46:00,
2013-10-21 13:51:00,50.6,48.4,30.15,NE,55,0.0,2.0,92,0.00,OVC,,0.00,WeatherDisplay:10.37,2013-10-21 20:51:00,
2013-10-21 13:56:00,50.8,48.3,30.15,East,89,0.0,1.0,91,0.00,OVC,,0.00,WeatherDisplay:10.37,2013-10-21 20:56:00,
2013-10-21 14:01:00,50.7,48.1,30.15,NW,321,0.0,1.0,91,0.00,OVC,,0.00,WeatherDisplay:10.37,2013-10-21 21:01:00,
2013-10-21 14:11:00,50.4,47.9,30.15,ESE,118,0.0,1.0,91,0.00,OVC,,0.00,WeatherDisplay:10.37,2013-10-21 21:11:00,
2013-10-21 14:16:00,50.5,48.2,30.15,SE,126,0.0,1.0,92,0.00,OVC,,0.00,WeatherDisplay:10.37,2013-10-21 21:16:00,
2013-10-21 14:21:00,50.5,48.3,30.14,ESE,103,1.0,1.0,92,0.00,OVC,,0.00,WeatherDisplay:10.37,2013-10-21 21:21:00,
2013-10-21 14:26:00,50.5,48.3,30.14,ENE,74,0.0,2.0,92,0.00,OVC,,0.00,WeatherDisplay:10.37,2013-10-21 21:26:00,
2013-10-21 14:31:00,50.5,48.0,30.14,East,96,1.0,2.0,91,0.00,OVC,,0.00,WeatherDisplay:10.37,2013-10-21 21:31:00,
2013-10-21 14:36:00,50.2,47.7,30.14,ESE,107,0.0,2.0,91,0.00,OVC,,0.00,WeatherDisplay:10.37,2013-10-21 21:36:00,
2013-10-21 14:41:00,50.1,47.9,30.14,East,81,1.0,3.0,92,0.00,OVC,,0.00,WeatherDisplay:10.37,2013-10-21 21:41:00,
2013-10-21 14:46:00,50.4,48.2,30.14,NNE,15,1.0,2.0,92,0.00,OVC,,0.00,WeatherDisplay:10.37,2013-10-21 21:46:00,
2013-10-21 14:51:00,50.7,48.5,30.14,WNW,296,0.0,1.0,92,0.00,OVC,,0.00,WeatherDisplay:10.37,2013-10-21 21:51:00,
2013-10-21 14:56:00,50.9,48.4,30.14,WNW,303,0.0,3.0,91,0.00,OVC,,0.00,WeatherDisplay:10.37,2013-10-21 21:56:00,
2013-10-21 15:01:00,50.8,48.3,30.14,WNW,297,0.0,4.0,91,0.00,OVC,,0.00,WeatherDisplay:10.37,2013-10-21 22:01:00,
2013-10-21 15:11:00,50.8,48.3,30.13,NE,53,1.0,1.0,91,0.00,OVC,,0.00,WeatherDisplay:10.37,2013-10-21 22:11:00,
2013-10-21 15:16:00,50.7,48.2,30.13,NE,48,0.0,1.0,91,0.00,OVC,,0.00,WeatherDisplay:10.37,2013-10-21 22:16:00,
2013-10-21 15:21:00,50.8,48.3,30.13,ENE,60,0.0,2.0,91,0.00,OVC,,0.00,WeatherDisplay:10.37,2013-10-21 22:21:00,
2013-10-21 15:26:00,50.8,48.3,30.13,East,80,0.0,2.0,91,0.00,OVC,,0.00,WeatherDisplay:10.37,2013-10-21 22:26:00,
2013-10-21 15:31:00,50.9,48.4,30.13,East,89,0.0,1.0,91,0.00,OVC,,0.00,WeatherDisplay:10.37,2013-10-21 22:31:00,
2013-10-21 15:36:00,51.0,48.5,30.13,East,101,0.0,1.0,91,0.00,OVC,,0.00,WeatherDisplay:10.37,2013-10-21 22:36:00,
2013-10-21 15:41:00,51.1,48.3,30.13,ESE,102,0.0,1.0,90,0.00,OVC,,0.00,WeatherDisplay:10.37,2013-10-21 22:41:00,
2013-10-21 15:46:00,51.2,48.4,30.13,ENE,66,0.0,1.0,90,0.00,OVC,,0.00,WeatherDisplay:10.37,2013-10-21 22:46:00,
2013-10-21 15:51:00,51.2,48.4,30.13,ENE,73,1.0,3.0,90,0.00,OVC,,0.00,WeatherDisplay:10.37,2013-10-21 22:51:00,
2013-10-21 15:56:00,50.9,48.0,30.13,East,87,1.0,2.0,90,0.00,OVC,,0.00,WeatherDisplay:10.37,2013-10-21 22:56:00,
2013-10-21 16:01:00,50.7,48.2,30.13,ESE,104,0.0,2.0,91,0.00,BKN,,0.00,WeatherDisplay:10.37,2013-10-21 23:01:00,
2013-10-21 16:11:00,50.5,48.0,30.13,East,85,0.0,1.0,91,0.00,BKN,,0.00,WeatherDisplay:10.37,2013-10-21 23:11:00,
2013-10-21 16:16:00,50.4,47.9,30.13,East,96,1.0,3.0,91,0.00,BKN,,0.00,WeatherDisplay:10.37,2013-10-21 23:16:00,
2013-10-21 16:21:00,50.3,47.8,30.12,East,99,0.0,2.0,91,0.00,BKN,,0.00,WeatherDisplay:10.37,2013-10-21 23:21:00,
2013-10-21 16:26:00,50.2,47.7,30.12,East,100,0.0,2.0,91,0.00,BKN,,0.00,WeatherDisplay:10.37,2013-10-21 23:26:00,
2013-10-21 16:31:00,50.2,48.0,30.12,East,101,0.0,0.0,92,0.00,BKN,,0.00,WeatherDisplay:10.37,2013-10-21 23:31:00,
2013-10-21 16:36:00,50.3,48.1,30.12,East,87,1.0,2.0,92,0.00,BKN,,0.00,WeatherDisplay:10.37,2013-10-21 23:36:00,
2013-10-21 16:41:00,50.2,48.0,30.12,ENE,78,0.0,1.0,92,0.00,BKN,,0.00,WeatherDisplay:10.37,2013-10-21 23:41:00,
2013-10-21 16:46:00,50.2,48.0,30.12,ENE,74,0.0,1.0,92,0.00,BKN,,0.00,WeatherDisplay:10.37,2013-10-21 23:46:00,
2013-10-21 16:51:00,50.2,48.0,30.12,NE,35,0.0,2.0,92,0.00,BKN,,0.00,WeatherDisplay:10.37,2013-10-21 23:51:00,
2013-10-21 17:01:00,50.0,47.8,30.11,SE,141,1.0,3.0,92,0.00,OVC,,0.00,WeatherDisplay:10.37,2013-10-22 00:01:00,
2013-10-21 17:11:00,49.8,47.9,30.11,SSE,159,0.0,0.0,93,0.00,OVC,,0.00,WeatherDisplay:10.37,2013-10-22 00:11:00,
2013-10-21 17:16:00,49.8,47.9,30.11,SSE,158,0.0,1.0,93,0.00,OVC,,0.00,WeatherDisplay:10.37,2013-10-22 00:16:00,
2013-10-21 17:21:00,49.8,47.8,30.11,SSE,152,0.0,1.0,93,0.00,OVC,,0.00,WeatherDisplay:10.37,2013-10-22 00:21:00,
2013-10-21 17:26:00,49.7,47.8,30.11,SE,143,0.0,1.0,93,0.00,OVC,,0.00,WeatherDisplay:10.37,2013-10-22 00:26:00,
2013-10-21 17:31:00,49.6,47.7,30.11,East,89,0.0,1.0,93,0.00,OVC,,0.00,WeatherDisplay:10.37,2013-10-22 00:31:00,
2013-10-21 17:36:00,49.6,47.9,30.11,East,88,0.0,1.0,94,0.00,OVC,,0.00,WeatherDisplay:10.37,2013-10-22 00:36:00,
2013-10-21 17:41:00,49.4,47.7,30.11,ESE,102,1.0,1.0,94,0.00,OVC,,0.00,WeatherDisplay:10.37,2013-10-22 00:41:00,
2013-10-21 17:46:00,49.2,47.5,30.11,ESE,114,0.0,1.0,94,0.00,OVC,,0.00,WeatherDisplay:10.37,2013-10-22 00:46:00,
2013-10-21 17:51:00,49.1,47.4,30.11,ESE,117,0.0,0.0,94,0.00,OVC,,0.00,WeatherDisplay:10.37,2013-10-22 00:51:00,
2013-10-21 17:56:00,49.1,47.4,30.11,ESE,117,0.0,0.0,94,0.00,OVC,,0.00,WeatherDisplay:10.37,2013-10-22 00:56:00,
2013-10-21 18:01:00,49.0,47.4,30.11,ESE,114,1.0,2.0,94,0.00,OVC,,0.00,WeatherDisplay:10.37,2013-10-22 01:01:00,
2013-10-21 18:11:00,48.8,47.4,30.11,East,99,0.0,1.0,95,0.00,OVC,,0.00,WeatherDisplay:10.37,2013-10-22 01:11:00,
2013-10-21 18:16:00,48.7,47.3,30.11,East,91,1.0,1.0,95,0.00,OVC,,0.00,WeatherDisplay:10.37,2013-10-22 01:16:00,
2013-10-21 18:21:00,48.6,47.2,30.11,East,96,0.0,2.0,95,0.00,OVC,,0.00,WeatherDisplay:10.37,2013-10-22 01:21:00,
2013-10-21 18:26:00,48.5,47.1,30.11,East,98,0.0,2.0,95,0.00,OVC,,0.00,WeatherDisplay:10.37,2013-10-22 01:26:00,
2013-10-21 18:31:00,48.5,47.1,30.11,East,98,0.0,1.0,95,0.00,OVC,,0.00,WeatherDisplay:10.37,2013-10-22 01:31:00,
2013-10-21 18:36:00,48.5,47.4,30.11,East,97,0.0,1.0,96,0.00,OVC,,0.00,WeatherDisplay:10.37,2013-10-22 01:36:00,
2013-10-21 18:41:00,48.4,47.3,30.11,East,98,1.0,2.0,96,0.00,OVC,,0.00,WeatherDisplay:10.37,2013-10-22 01:41:00,
2013-10-21 18:46:00,48.3,47.2,30.11,East,97,1.0,2.0,96,0.00,OVC,,0.00,WeatherDisplay:10.37,2013-10-22 01:46:00,
2013-10-21 18:51:00,48.1,47.0,30.11,East,98,0.0,2.0,96,0.00,OVC,,0.00,WeatherDisplay:10.37,2013-10-22 01:51:00,
2013-10-21 18:56:00,47.9,46.8,30.11,ESE,102,0.0,3.0,96,0.00,OVC,,0.00,WeatherDisplay:10.37,2013-10-22 01:56:00,
2013-10-21 19:01:00,47.8,46.7,30.11,East,96,0.0,1.0,96,0.00,OVC,,0.00,WeatherDisplay:10.37,2013-10-22 02:01:00,
2013-10-21 19:11:00,47.6,46.5,30.12,ENE,67,0.0,1.0,96,0.00,OVC,,0.00,WeatherDisplay:10.37,2013-10-22 02:11:00,
2013-10-21 19:16:00,47.5,46.4,30.11,ESE,121,0.0,2.0,96,0.00,OVC,,0.00,WeatherDisplay:10.37,2013-10-22 02:16:00,
2013-10-21 19:21:00,47.4,46.3,30.11,ESE,118,0.0,1.0,96,0.00,OVC,,0.00,WeatherDisplay:10.37,2013-10-22 02:21:00,
2013-10-21 19:26:00,47.4,46.3,30.11,East,80,0.0,1.0,96,0.00,OVC,,0.00,WeatherDisplay:10.37,2013-10-22 02:26:00,
2013-10-21 19:31:00,47.3,46.2,30.11,East,84,1.0,2.0,96,0.00,OVC,,0.00,WeatherDisplay:10.37,2013-10-22 02:31:00,
2013-10-21 19:36:00,47.3,46.2,30.11,NE,42,1.0,1.0,96,0.00,OVC,,0.00,WeatherDisplay:10.37,2013-10-22 02:36:00,
2013-10-21 19:41:00,47.2,46.1,30.11,NE,43,1.0,2.0,96,0.00,OVC,,0.00,WeatherDisplay:10.37,2013-10-22 02:41:00,
2013-10-21 19:46:00,47.0,45.9,30.11,ENE,58,0.0,1.0,96,0.00,OVC,,0.00,WeatherDisplay:10.37,2013-10-22 02:46:00,
2013-10-21 19:51:00,47.0,46.2,30.11,ENE,69,0.0,0.0,97,0.00,OVC,,0.00,WeatherDisplay:10.37,2013-10-22 02:51:00,
2013-10-21 19:56:00,47.0,46.2,30.11,ENE,69,0.0,0.0,97,0.00,OVC,,0.00,WeatherDisplay:10.37,2013-10-22 02:56:00,
2013-10-21 20:01:00,47.0,46.2,30.11,ENE,69,0.0,1.0,97,0.00,OVC,,0.00,WeatherDisplay:10.37,2013-10-22 03:01:00,
2013-10-21 20:11:00,46.8,46.0,30.11,ENE,77,0.0,1.0,97,0.00,OVC,,0.00,WeatherDisplay:10.37,2013-10-22 03:11:00,
2013-10-21 20:16:00,46.8,46.0,30.11,East,80,0.0,0.0,97,0.00,OVC,,0.00,WeatherDisplay:10.37,2013-10-22 03:16:00,
2013-10-21 20:21:00,46.8,46.0,30.12,East,80,0.0,1.0,97,0.00,OVC,,0.00,WeatherDisplay:10.37,2013-10-22 03:21:00,
2013-10-21 20:26:00,46.8,46.0,30.12,East,79,0.0,1.0,97,0.00,OVC,,0.00,WeatherDisplay:10.37,2013-10-22 03:26:00,
2013-10-21 20:31:00,46.7,45.9,30.11,NE,40,0.0,2.0,97,0.00,OVC,,0.00,WeatherDisplay:10.37,2013-10-22 03:31:00,
2013-10-21 20:36:00,46.7,45.9,30.11,NNW,347,0.0,1.0,97,0.00,OVC,,0.00,WeatherDisplay:10.37,2013-10-22 03:36:00,
2013-10-21 20:41:00,46.7,45.9,30.12,NNW,346,0.0,0.0,97,0.00,OVC,,0.00,WeatherDisplay:10.37,2013-10-22 03:41:00,
2013-10-21 20:46:00,46.6,45.8,30.11,NNW,345,0.0,1.0,97,0.00,OVC,,0.00,WeatherDisplay:10.37,2013-10-22 03:46:00,
2013-10-21 20:51:00,46.5,45.7,30.12,NNW,346,0.0,1.0,97,0.00,OVC,,0.00,WeatherDisplay:10.37,2013-10-22 03:51:00,
2013-10-21 20:56:00,46.4,45.6,30.12,NNW,346,0.0,1.0,97,0.00,OVC,,0.00,WeatherDisplay:10.37,2013-10-22 03:56:00,
2013-10-21 21:01:00,46.4,45.6,30.12,NNW,345,0.0,1.0,97,0.00,OVC,,0.00,WeatherDisplay:10.37,2013-10-22 04:01:00,
2013-10-21 21:06:00,46.4,45.6,30.11,North,354,0.0,1.0,97,0.00,OVC,,0.00,WeatherDisplay:10.37,2013-10-22 04:06:00,
2013-10-21 21:11:00,46.4,45.6,30.11,NE,51,1.0,2.0,97,0.00,OVC,,0.00,WeatherDisplay:10.37,2013-10-22 04:11:00,
2013-10-21 21:16:00,46.3,45.5,30.11,East,99,1.0,2.0,97,0.00,OVC,,0.00,WeatherDisplay:10.37,2013-10-22 04:16:00,
2013-10-21 21:21:00,46.3,45.5,30.11,East,97,0.0,1.0,97,0.00,OVC,,0.00,WeatherDisplay:10.37,2013-10-22 04:21:00,
2013-10-21 21:26:00,46.3,46.3,30.12,ESE,106,0.0,1.0,100,0.00,OVC,,0.00,WeatherDisplay:10.37,2013-10-22 04:26:00,
2013-10-21 21:31:00,46.2,46.2,30.12,SE,129,0.0,1.0,100,0.00,OVC,,0.00,WeatherDisplay:10.37,2013-10-22 04:31:00,
2013-10-21 21:36:00,46.2,46.2,30.12,ESE,116,0.0,2.0,100,0.00,OVC,,0.00,WeatherDisplay:10.37,2013-10-22 04:36:00,
2013-10-21 21:41:00,46.2,46.2,30.12,ESE,118,0.0,1.0,100,0.00,OVC,,0.00,WeatherDisplay:10.37,2013-10-22 04:41:00,
2013-10-21 21:46:00,46.3,46.3,30.12,SE,124,0.0,1.0,100,0.00,OVC,,0.00,WeatherDisplay:10.37,2013-10-22 04:46:00,
2013-10-21 21:51:00,46.3,46.3,30.12,SE,124,0.0,1.0,100,0.00,OVC,,0.00,WeatherDisplay:10.37,2013-10-22 04:51:00,
2013-10-21 21:56:00,46.3,46.3,30.12,SE,124,0.0,1.0,100,0.00,OVC,,0.00,WeatherDisplay:10.37,2013-10-22 04:56:00,
2013-10-21 22:01:00,46.4,46.4,30.12,ESE,118,0.0,1.0,100,0.00,OVC,,0.00,WeatherDisplay:10.37,2013-10-22 05:01:00,
2013-10-21 22:11:00,46.3,46.3,30.12,East,97,0.0,1.0,100,0.00,OVC,,0.00,WeatherDisplay:10.37,2013-10-22 05:11:00,
2013-10-21 22:16:00,46.3,46.3,30.12,East,98,0.0,1.0,100,0.00,OVC,,0.00,WeatherDisplay:10.37,2013-10-22 05:16:00,
2013-10-21 22:21:00,46.3,46.3,30.12,East,98,0.0,1.0,100,0.00,OVC,,0.00,WeatherDisplay:10.37,2013-10-22 05:21:00,
2013-10-21 22:26:00,46.2,46.2,30.12,East,92,0.0,2.0,100,0.00,OVC,,0.00,WeatherDisplay:10.37,2013-10-22 05:26:00,
2013-10-21 22:31:00,46.1,46.1,30.12,East,87,1.0,2.0,100,0.00,OVC,,0.00,WeatherDisplay:10.37,2013-10-22 05:31:00,
2013-10-21 22:36:00,46.1,46.1,30.12,East,86,0.0,1.0,100,0.00,OVC,,0.00,WeatherDisplay:10.37,2013-10-22 05:36:00,
2013-10-21 22:41:00,46.0,46.0,30.13,East,82,0.0,1.0,100,0.00,OVC,,0.00,WeatherDisplay:10.37,2013-10-22 05:41:00,
2013-10-21 22:46:00,46.0,46.0,30.13,ENE,76,0.0,2.0,100,0.00,OVC,,0.00,WeatherDisplay:10.37,2013-10-22 05:46:00,
2013-10-21 22:51:00,46.0,46.0,30.12,ENE,72,0.0,1.0,100,0.00,OVC,,0.00,WeatherDisplay:10.37,2013-10-22 05:51:00,
2013-10-21 22:56:00,46.1,46.1,30.12,East,81,0.0,2.0,100,0.00,OVC,,0.00,WeatherDisplay:10.37,2013-10-22 05:56:00,
2013-10-21 23:01:00,45.9,45.9,30.12,East,82,1.0,2.0,100,0.00,OVC,,0.00,WeatherDisplay:10.37,2013-10-22 06:01:00,
2013-10-21 23:11:00,45.9,45.9,30.12,East,87,0.0,1.0,100,0.00,OVC,,0.00,WeatherDisplay:10.37,2013-10-22 06:11:00,
2013-10-21 23:16:00,45.9,45.9,30.12,East,84,0.0,1.0,100,0.00,OVC,,0.00,WeatherDisplay:10.37,2013-10-22 06:16:00,
2013-10-21 23:21:00,45.9,45.9,30.12,East,84,0.0,0.0,100,0.00,OVC,,0.00,WeatherDisplay:10.37,2013-10-22 06:21:00,
2013-10-21 23:26:00,46.0,46.0,30.12,East,84,0.0,0.0,100,0.00,OVC,,0.00,WeatherDisplay:10.37,2013-10-22 06:26:00,
2013-10-21 23:31:00,46.0,46.0,30.12,East,84,0.0,1.0,100,0.00,OVC,,0.00,WeatherDisplay:10.37,2013-10-22 06:31:00,
2013-10-21 23:36:00,46.0,46.0,30.12,East,84,0.0,0.0,100,0.00,OVC,,0.00,WeatherDisplay:10.37,2013-10-22 06:36:00,
2013-10-21 23:41:00,46.0,46.0,30.12,East,83,0.0,1.0,100,0.00,OVC,,0.00,WeatherDisplay:10.37,2013-10-22 06:41:00,
2013-10-21 23:46:00,46.0,46.0,30.12,ENE,72,0.0,1.0,100,0.00,OVC,,0.00,WeatherDisplay:10.37,2013-10-22 06:46:00,
2013-10-21 23:51:00,46.0,46.0,30.12,ENE,61,0.0,1.0,100,0.00,OVC,,0.00,WeatherDisplay:10.37,2013-10-22 06:51:00,
2013-10-21 23:56:00,46.0,46.0,30.12,ENE,63,0.0,1.0,100,0.00,OVC,,0.00,WeatherDisplay:10.37,2013-10-22 06:56:00,